TimePST,TemperatureF,Dew PointF,Humidity,Sea Level PressureIn,VisibilityMPH,Wind Direction,Wind SpeedMPH,Gust SpeedMPH,PrecipitationIn,Events,Conditions,WindDirDegrees,DateUTC
12:08 AM,39.2,39.2,100,30.28,3.0,Calm,Calm,-,N/A,,Overcast,0,2013-02-03 08:08:00
12:53 AM,39.9,39.0,97,30.30,3.0,Calm,Calm,-,N/A,,Overcast,0,2013-02-03 08:53:00
1:53 AM,42.1,39.9,92,30.29,6.0,Calm,Calm,-,N/A,,Overcast,0,2013-02-03 09:53:00
2:53 AM,41.0,39.0,93,30.29,4.0,Calm,Calm,-,N/A,,Overcast,0,2013-02-03 10:53:00
3:53 AM,41.0,39.0,93,30.29,5.0,South,4.6,-,N/A,,Overcast,170,2013-02-03 11:53:00
4:53 AM,39.9,37.9,93,30.29,5.0,South,6.9,-,N/A,,Overcast,190,2013-02-03 12:53:00
5:53 AM,39.9,37.0,89,30.29,10.0,South,5.8,-,N/A,,Overcast,170,2013-02-03 13:53:00
6:53 AM,39.9,37.9,93,30.30,7.0,SSE,8.1,-,N/A,,Overcast,150,2013-02-03 14:53:00
7:30 AM,39.2,37.4,93,30.26,10.0,SE,9.2,-,N/A,,Overcast,140,2013-02-03 15:30:00
7:53 AM,39.9,39.0,97,30.29,6.0,SSE,9.2,-,N/A,,Overcast,160,2013-02-03 15:53:00
8:01 AM,41.0,39.2,93,30.27,5.0,SSE,9.2,-,N/A,,Overcast,160,2013-02-03 16:01:00
8:53 AM,41.0,39.9,96,30.31,4.0,South,5.8,-,N/A,,Overcast,170,2013-02-03 16:53:00
9:17 AM,41.0,39.2,93,30.28,2.0,South,8.1,-,N/A,,Overcast,170,2013-02-03 17:17:00
9:26 AM,41.0,39.2,93,30.27,1.8,South,8.1,-,N/A,,Overcast,170,2013-02-03 17:26:00
9:53 AM,42.1,41.0,96,30.30,1.8,South,8.1,-,N/A,,Overcast,170,2013-02-03 17:53:00
10:31 AM,42.8,41.0,93,30.29,2.0,South,4.6,-,N/A,,Overcast,190,2013-02-03 18:31:00
10:53 AM,42.1,41.0,96,30.32,2.5,South,5.8,-,N/A,,Overcast,170,2013-02-03 18:53:00
11:45 AM,42.8,42.8,100,30.27,1.8,Calm,Calm,-,N/A,,Overcast,0,2013-02-03 19:45:00
11:53 AM,43.0,42.1,97,30.31,1.8,South,4.6,-,N/A,,Overcast,180,2013-02-03 19:53:00
12:01 PM,42.8,42.8,100,30.28,2.5,South,5.8,-,N/A,,Overcast,180,2013-02-03 20:01:00
12:53 PM,43.0,42.1,97,30.29,2.0,SSE,8.1,-,N/A,,Overcast,160,2013-02-03 20:53:00
1:00 PM,42.8,42.8,100,30.25,3.0,SSE,8.1,-,N/A,,Overcast,160,2013-02-03 21:00:00
1:34 PM,44.6,42.8,93,30.23,7.0,SSE,9.2,-,N/A,,Overcast,160,2013-02-03 21:34:00
1:53 PM,45.0,42.1,90,30.26,10.0,South,10.4,-,N/A,,Overcast,170,2013-02-03 21:53:00
2:53 PM,45.0,42.1,90,30.26,9.0,South,8.1,-,0.00,Rain,Light Rain,170,2013-02-03 22:53:00
3:31 PM,44.6,42.8,93,30.23,5.0,South,8.1,-,0.00,Rain,Light Rain,170,2013-02-03 23:31:00
3:53 PM,45.0,43.0,93,30.25,3.0,South,8.1,-,0.01,Rain,Light Rain,170,2013-02-03 23:53:00
4:04 PM,44.6,42.8,93,30.22,4.0,South,5.8,-,0.01,Rain,Light Rain,180,2013-02-04 00:04:00
4:53 PM,44.1,43.0,96,30.25,4.0,South,6.9,-,0.02,Rain,Light Rain,170,2013-02-04 00:53:00
5:53 PM,44.1,43.0,96,30.25,5.0,South,6.9,-,0.02,Rain,Light Rain,180,2013-02-04 01:53:00
6:53 PM,44.1,43.0,96,30.24,4.0,South,5.8,-,0.03,Rain,Light Rain,170,2013-02-04 02:53:00
7:37 PM,44.6,42.8,93,30.21,4.0,South,4.6,-,0.01,Rain,Light Rain,170,2013-02-04 03:37:00
7:53 PM,44.1,43.0,96,30.24,4.0,SSE,4.6,-,0.02,Rain,Light Rain,160,2013-02-04 03:53:00
8:00 PM,44.6,42.8,93,30.21,3.0,South,4.6,-,0.00,Rain,Light Rain,170,2013-02-04 04:00:00
8:09 PM,44.6,42.8,93,30.20,4.0,South,4.6,-,0.00,Rain,Light Rain,170,2013-02-04 04:09:00
8:53 PM,44.1,43.0,96,30.22,5.0,South,4.6,-,0.00,,Overcast,170,2013-02-04 04:53:00
9:27 PM,44.6,42.8,93,30.19,6.0,SSE,5.8,-,N/A,,Overcast,160,2013-02-04 05:27:00
9:53 PM,45.0,43.0,93,30.22,6.0,South,6.9,-,N/A,,Overcast,170,2013-02-04 05:53:00
10:32 PM,44.6,44.6,100,30.19,7.0,SSE,6.9,-,N/A,,Overcast,160,2013-02-04 06:32:00
10:53 PM,45.0,43.0,93,30.21,7.0,SSE,8.1,-,N/A,,Overcast,160,2013-02-04 06:53:00
11:32 PM,44.6,42.8,93,30.18,10.0,SSE,8.1,-,N/A,,Overcast,160,2013-02-04 07:32:00
11:53 PM,45.0,43.0,93,30.20,10.0,SSE,8.1,-,N/A,,Overcast,160,2013-02-04 07:53:00